TimeEST,TemperatureF,Dew PointF,Humidity,Sea Level PressureIn,VisibilityMPH,Wind Direction,Wind SpeedMPH,Gust SpeedMPH,PrecipitationIn,Events,Conditions,WindDirDegrees,DateUTC
12:15 AM,35.2,26.2,70,29.94,10.0,South,12.7,19.6,N/A,,Clear,180,2013-01-09 05:15:00
12:35 AM,35.6,26.4,69,29.93,10.0,South,12.7,19.6,N/A,,Clear,170,2013-01-09 05:35:00
12:55 AM,35.6,26.1,68,29.93,10.0,South,13.8,20.7,N/A,,Clear,180,2013-01-09 05:55:00
1:15 AM,36.5,25.7,65,29.92,10.0,South,12.7,18.4,N/A,,Scattered Clouds,180,2013-01-09 06:15:00
1:35 AM,36.9,25.7,64,29.90,10.0,South,15.0,23.0,N/A,,Scattered Clouds,180,2013-01-09 06:35:00
1:55 AM,36.0,26.1,67,29.88,10.0,South,11.5,19.6,N/A,,Clear,170,2013-01-09 06:55:00
2:15 AM,36.5,26.2,66,29.87,10.0,South,12.7,16.1,N/A,,Scattered Clouds,180,2013-01-09 07:15:00
2:34 AM,37.0,26.6,66,29.87,10.0,South,12.7,20.7,N/A,,Mostly Cloudy,180,2013-01-09 07:34:00
2:55 AM,37.4,27.1,66,29.85,10.0,South,11.5,17.3,N/A,,Overcast,190,2013-01-09 07:55:00
3:14 AM,37.8,27.3,66,29.85,10.0,South,13.8,23.0,N/A,,Mostly Cloudy,190,2013-01-09 08:14:00
3:35 AM,37.9,27.9,67,29.85,10.0,SSW,12.7,20.7,N/A,,Scattered Clouds,200,2013-01-09 08:35:00
3:54 AM,37.4,28.2,69,29.84,10.0,South,9.2,-,N/A,,Clear,190,2013-01-09 08:54:00
4:15 AM,38.7,29.7,70,29.82,10.0,SSW,11.5,17.3,N/A,,Clear,200,2013-01-09 09:15:00
4:34 AM,39.4,30.2,70,29.83,10.0,SSW,10.4,26.5,N/A,,Mostly Cloudy,210,2013-01-09 09:34:00
4:55 AM,39.2,31.1,73,29.82,10.0,SSW,16.1,26.5,N/A,,Drizzle,210,2013-01-09 09:55:00
5:14 AM,38.8,31.5,75,29.81,10.0,SW,12.7,20.7,N/A,,Overcast,220,2013-01-09 10:14:00
5:35 AM,38.7,31.5,75,29.80,10.0,SW,11.5,18.4,N/A,,Mostly Cloudy,220,2013-01-09 10:35:00
5:55 AM,38.7,31.6,76,29.80,10.0,SW,15.0,23.0,N/A,,Overcast,220,2013-01-09 10:55:00
6:15 AM,38.8,31.3,74,29.80,10.0,SW,11.5,20.7,N/A,,Overcast,220,2013-01-09 11:15:00
6:35 AM,39.2,31.6,74,29.81,10.0,SW,17.3,21.9,N/A,,Overcast,230,2013-01-09 11:35:00
6:55 AM,39.2,32.2,76,29.81,10.0,WSW,20.7,29.9,N/A,,Overcast,240,2013-01-09 11:55:00
7:14 AM,39.0,32.0,76,29.82,10.0,WSW,25.3,34.5,N/A,,Overcast,250,2013-01-09 12:14:00
7:35 AM,38.3,32.0,78,29.82,10.0,WSW,24.2,31.1,N/A,,Overcast,250,2013-01-09 12:35:00
8:14 AM,37.6,31.5,79,29.85,10.0,WSW,19.6,24.2,N/A,,Overcast,250,2013-01-09 13:14:00
8:35 AM,37.6,30.7,76,29.86,10.0,WSW,21.9,28.8,N/A,,Overcast,250,2013-01-09 13:35:00
8:55 AM,37.8,31.1,77,29.88,10.0,WSW,18.4,32.2,N/A,,Overcast,250,2013-01-09 13:55:00
9:15 AM,37.4,31.1,78,29.89,10.0,WSW,23.0,32.2,N/A,,Overcast,250,2013-01-09 14:15:00
9:35 AM,37.2,30.7,77,29.89,10.0,WSW,20.7,31.1,N/A,,Overcast,240,2013-01-09 14:35:00
9:55 AM,37.4,30.4,76,29.90,10.0,WSW,21.9,31.1,N/A,,Scattered Clouds,240,2013-01-09 14:55:00
10:15 AM,37.6,30.2,75,29.90,10.0,WSW,18.4,27.6,N/A,,Clear,240,2013-01-09 15:15:00
10:35 AM,38.1,30.2,73,29.90,10.0,WSW,16.1,23.0,N/A,,Scattered Clouds,240,2013-01-09 15:35:00
10:54 AM,38.3,30.4,73,29.89,10.0,WSW,13.8,-,N/A,,Scattered Clouds,240,2013-01-09 15:54:00
11:15 AM,37.8,30.9,76,29.89,10.0,SW,19.6,27.6,N/A,,Scattered Clouds,230,2013-01-09 16:15:00
11:35 AM,37.4,31.1,78,29.90,10.0,WSW,19.6,32.2,N/A,,Overcast,240,2013-01-09 16:35:00
11:54 AM,37.4,30.2,75,29.91,10.0,West,31.1,40.3,N/A,,Overcast,260,2013-01-09 16:54:00
12:15 PM,36.5,28.4,72,29.92,10.0,West,25.3,39.1,N/A,,Overcast,260,2013-01-09 17:15:00
12:35 PM,36.5,27.5,70,29.92,10.0,West,23.0,28.8,N/A,,Overcast,260,2013-01-09 17:35:00
12:54 PM,36.5,28.8,74,29.93,10.0,WSW,18.4,28.8,N/A,,Overcast,250,2013-01-09 17:54:00
1:15 PM,36.5,28.8,74,29.94,10.0,WSW,18.4,32.2,N/A,,Overcast,250,2013-01-09 18:15:00
1:35 PM,36.7,28.4,72,29.95,10.0,WSW,19.6,32.2,N/A,,Overcast,250,2013-01-09 18:35:00
1:55 PM,36.9,28.2,71,29.96,10.0,WSW,21.9,29.9,N/A,,Overcast,250,2013-01-09 18:55:00
2:15 PM,37.4,27.3,67,29.97,10.0,West,21.9,32.2,N/A,,Overcast,260,2013-01-09 19:15:00
2:35 PM,37.4,27.7,68,29.98,10.0,West,26.5,32.2,N/A,,Overcast,260,2013-01-09 19:35:00
2:55 PM,37.6,26.4,64,30.01,10.0,West,26.5,36.8,N/A,,Overcast,270,2013-01-09 19:55:00
3:15 PM,37.6,26.4,64,30.03,10.0,West,25.3,33.4,N/A,,Overcast,280,2013-01-09 20:15:00
3:35 PM,37.4,25.0,61,30.04,10.0,West,21.9,27.6,N/A,,Overcast,280,2013-01-09 20:35:00
3:55 PM,37.4,26.2,64,30.07,10.0,West,24.2,29.9,N/A,,Overcast,280,2013-01-09 20:55:00
4:15 PM,37.2,24.8,61,30.09,10.0,West,28.8,33.4,N/A,,Overcast,270,2013-01-09 21:15:00
4:35 PM,37.0,25.3,63,30.12,10.0,West,19.6,29.9,N/A,,Overcast,280,2013-01-09 21:35:00
4:55 PM,37.0,25.2,62,30.13,10.0,West,19.6,28.8,N/A,,Overcast,280,2013-01-09 21:55:00
5:15 PM,37.0,25.7,64,30.15,10.0,West,20.7,25.3,N/A,,Overcast,280,2013-01-09 22:15:00
5:34 PM,37.0,25.9,64,30.17,10.0,West,21.9,26.5,N/A,,Overcast,280,2013-01-09 22:34:00
5:55 PM,37.4,25.3,62,30.19,10.0,West,24.2,32.2,N/A,,Overcast,280,2013-01-09 22:55:00
6:14 PM,37.2,25.7,63,30.20,10.0,West,17.3,29.9,N/A,,Overcast,280,2013-01-09 23:14:00
6:35 PM,37.4,24.6,60,30.23,10.0,WNW,21.9,31.1,N/A,,Overcast,290,2013-01-09 23:35:00
6:54 PM,37.2,25.3,62,30.25,10.0,WNW,21.9,29.9,N/A,,Overcast,290,2013-01-09 23:54:00
7:15 PM,37.4,25.3,62,30.28,10.0,WNW,23.0,29.9,N/A,,Overcast,290,2013-01-10 00:15:00
7:35 PM,36.9,24.6,61,30.30,10.0,WNW,21.9,31.1,N/A,,Mostly Cloudy,300,2013-01-10 00:35:00
7:55 PM,36.7,25.3,64,30.32,10.0,WNW,19.6,28.8,N/A,,Scattered Clouds,290,2013-01-10 00:55:00
8:15 PM,36.5,25.2,64,30.33,10.0,West,20.7,28.8,N/A,,Scattered Clouds,280,2013-01-10 01:15:00
8:35 PM,36.3,23.9,61,30.32,10.0,WNW,18.4,28.8,N/A,,Scattered Clouds,290,2013-01-10 01:35:00
8:55 PM,36.1,24.8,63,30.34,10.0,WNW,17.3,26.5,N/A,,Clear,300,2013-01-10 01:55:00
9:14 PM,36.0,25.0,64,30.35,10.0,WNW,17.3,23.0,N/A,,Clear,290,2013-01-10 02:14:00
9:35 PM,36.0,25.5,66,30.35,10.0,WNW,15.0,21.9,N/A,,Clear,290,2013-01-10 02:35:00
9:54 PM,35.8,25.5,66,30.37,10.0,WNW,15.0,21.9,N/A,,Clear,300,2013-01-10 02:54:00
10:15 PM,35.6,25.7,67,30.37,10.0,WNW,16.1,-,N/A,,Clear,300,2013-01-10 03:15:00
10:35 PM,35.8,26.1,68,30.38,10.0,WNW,15.0,23.0,N/A,,Clear,300,2013-01-10 03:35:00
10:54 PM,36.0,26.4,68,30.39,10.0,WNW,12.7,18.4,N/A,,Clear,290,2013-01-10 03:54:00
11:15 PM,35.6,26.6,70,30.40,10.0,WNW,9.2,-,N/A,,Clear,300,2013-01-10 04:15:00
11:34 PM,35.8,26.6,69,30.41,10.0,WNW,8.1,-,N/A,,Clear,300,2013-01-10 04:34:00
11:55 PM,35.4,26.4,70,30.42,10.0,NW,8.1,-,N/A,,Clear,310,2013-01-10 04:55:00